This is the latest recevied weather packets stored in our database for station/object IW5EIJ-10. If no packets are shown the sender has not sent any weather packets the latest 10 day(s).
| Time | Temp. | Humidity | Pressure | Rain* | Wind** | Luminosity | Snow |
|---|---|---|---|---|---|---|---|
| 1777766825 | 17.22° C | 34% | 1017.7 hPa | - | - | - | - |
| 1777765625 | 17.22° C | 34% | 1017.8 hPa | - | - | - | - |
| 1777764431 | 17.22° C | 34% | 1017.9 hPa | - | - | - | - |
| 1777763225 | 17.78° C | 32% | 1018 hPa | - | - | - | - |
| 1777762025 | 17.78° C | 33% | 1018 hPa | - | - | - | - |
| 1777760824 | 17.78° C | 33% | 1018.1 hPa | - | - | - | - |
| 1777759624 | 17.78° C | 33% | 1018.2 hPa | - | - | - | - |
| 1777758424 | 18.33° C | 33% | 1018.1 hPa | - | - | - | - |
| 1777757224 | 18.33° C | 32% | 1018.1 hPa | - | - | - | - |
| 1777756024 | 18.33° C | 32% | 1018.2 hPa | - | - | - | - |
| 1777754824 | 18.89° C | 32% | 1018.2 hPa | - | - | - | - |
| 1777752424 | 18.89° C | 31% | 1018.3 hPa | - | - | - | - |
| 1777751224 | 19.44° C | 30% | 1018.2 hPa | - | - | - | - |
| 1777750026 | 18.89° C | 30% | 1018 hPa | - | - | - | - |
| 1777748824 | 20° C | 30% | 1017.7 hPa | - | - | - | - |
| 1777747624 | 20.56° C | 28% | 1017.5 hPa | - | - | - | - |
| 1777746424 | 21.11° C | 26% | 1017.1 hPa | - | - | - | - |
| 1777745224 | 21.11° C | 28% | 1017 hPa | - | - | - | - |
| 1777744024 | 21.67° C | 27% | 1017 hPa | - | - | - | - |
| 1777742824 | 22.22° C | 25% | 1016.8 hPa | - | - | - | - |
| 1777741624 | 23.33° C | 23% | 1016.8 hPa | - | - | - | - |
| 1777740424 | 23.89° C | 20% | 1016.8 hPa | - | - | - | - |
| 1777739224 | 24.44° C | 20% | 1016.8 hPa | - | - | - | - |
| 1777738023 | 25° C | 20% | 1017 hPa | - | - | - | - |
| 1777736822 | 25° C | 20% | 1017.1 hPa | - | - | - | - |
* Rain since midnight (hover to see other rain measurements)
** Current wind speed in m/s (hover to see current wind gust speed)